Location: Unspecified
(0.0000°N, 0.0000°E)
Time: 01:06:13
(UTC+00:00)

deb Delta 104 - Pass Details

Date: 12 March 2026
Orbit: 1339 x 1585 km, 100.8° (Epoch: 14 April)

Event Time Altitude Azimuth Distance (km) Brightness Sun altitude
Exits shadow 21:45:32 15° 209° (SSW) 3,407 ? -53.9°
Drops below altitude 10° 21:46:42 10° 207° (SSW) 3,789 ? -54.2°
Sets 21:49:40 0° 203° (SSW) 4,777 ? -54.9°
